• In Russia
  • List of Countries
  • For 7 days
  • Water Temperature
  • Satellite Maps
  • Weather Map
  • Weather Widgets
  • user-avatar
    Login

    Hourly Weather Tadzhura

    Today, 22 May, Tuesday

    Time Temperature Precipitation Wind Pressure Humidity
    00:00 +35°C° 0 mm 2 mps 754 mmHg 52%
    01:00 +33°C° 0 mm 1 mps 754 mmHg 53%
    02:00 +33°C° 0 mm 1 mps 753 mmHg 55%
    03:00 +33°C° 0 mm 1 mps 753 mmHg 57%
    04:00 +32°C° 0 mm 1 mps 753 mmHg 57%
    05:00 +32°C° 0 mm 1 mps 754 mmHg 57%
    06:00 +32°C° 0 mm 1 mps 754 mmHg 57%
    07:00 +31°C° 0 mm 0 mps 754 mmHg 50%
    08:00 +33°C° 0 mm 0 mps 755 mmHg 44%
    09:00 +36°C° 0 mm 1 mps 755 mmHg 39%
    10:00 +39°C° 0 mm 1 mps 754 mmHg 35%
    11:00 +40°C° 0 mm 1 mps 754 mmHg 31%
    12:00 +41°C° 0 mm 2 mps 754 mmHg 28%
    13:00 +41°C° 0 mm 2 mps 753 mmHg 26%
    14:00 +43°C° 0 mm 3 mps 753 mmHg 24%
    15:00 +45°C° 0 mm 3 mps 752 mmHg 19%
    16:00 +44°C° 0 mm 3 mps 752 mmHg 22%
    17:00 +43°C° 0 mm 3 mps 752 mmHg 25%
    18:00 +42°C° 0 mm 3 mps 752 mmHg 28%
    19:00 +42°C° 0 mm 3 mps 752 mmHg 32%
    20:00 +40°C° 0 mm 2 mps 753 mmHg 35%
    21:00 +39°C° 0 mm 2 mps 753 mmHg 38%
    22:00 +39°C° 0 mm 2 mps 753 mmHg 38%
    23:00 +38°C° 0 mm 2 mps 753 mmHg 38%

    Tomorrow, 23 May, Wednesday

    Time Temperature Precipitation Wind Pressure Humidity
    00:00 +38°C° 0 mm 2 mps 753 mmHg 38%
    01:00 +38°C° 0 mm 2 mps 753 mmHg 37%
    02:00 +37°C° 0 mm 2 mps 753 mmHg 37%
    03:00 +36°C° 0 mm 1 mps 753 mmHg 37%
    04:00 +36°C° 0 mm 1 mps 753 mmHg 37%
    05:00 +35°C° 0 mm 1 mps 753 mmHg 37%
    06:00 +35°C° 0 mm 1 mps 753 mmHg 37%
    07:00 +37°C° 0 mm 2 mps 754 mmHg 32%
    08:00 +39°C° 0 mm 2 mps 754 mmHg 28%
    09:00 +40°C° 0 mm 2 mps 754 mmHg 24%
    10:00 +41°C° 0 mm 2 mps 754 mmHg 23%
    11:00 +43°C° 0 mm 3 mps 754 mmHg 21%
    12:00 +44°C° 0 mm 3 mps 753 mmHg 20%
    13:00 +44°C° 0 mm 3 mps 753 mmHg 19%
    14:00 +44°C° 0 mm 3 mps 752 mmHg 19%
    15:00 +45°C° 0 mm 3 mps 751 mmHg 19%
    16:00 +44°C° 0 mm 3 mps 751 mmHg 21%
    17:00 +43°C° 0 mm 3 mps 751 mmHg 23%
    18:00 +42°C° 0 mm 3 mps 751 mmHg 26%
    19:00 +42°C° 0 mm 3 mps 751 mmHg 27%
    20:00 +40°C° 0 mm 3 mps 752 mmHg 29%
    21:00 +39°C° 0 mm 3 mps 752 mmHg 31%
    22:00 +39°C° 0 mm 3 mps 752 mmHg 32%
    23:00 +38°C° 0 mm 2 mps 752 mmHg 34%

    Day after tomorrow, 24 May, Thursday

    Time Temperature Precipitation Wind Pressure Humidity
    00:00 +38°C° 0 mm 2 mps 752 mmHg 35%
    01:00 +38°C° 0 mm 2 mps 752 mmHg 36%
    02:00 +37°C° 0 mm 2 mps 752 mmHg 38%
    03:00 +36°C° 0 mm 1 mps 751 mmHg 40%
    04:00 +35°C° 0 mm 1 mps 751 mmHg 41%
    05:00 +35°C° 0 mm 1 mps 751 mmHg 42%
    06:00 +34°C° 0 mm 1 mps 752 mmHg 43%
    07:00 +36°C° 0 mm 1 mps 752 mmHg 38%
    08:00 +37°C° 0 mm 1 mps 753 mmHg 33%
    09:00 +39°C° 0 mm 1 mps 753 mmHg 28%
    10:00 +40°C° 0 mm 1 mps 753 mmHg 26%
    11:00 +41°C° 0 mm 2 mps 752 mmHg 25%
    12:00 +43°C° 0 mm 3 mps 752 mmHg 23%
    13:00 +44°C° 0 mm 3 mps 751 mmHg 24%
    14:00 +44°C° 0 mm 3 mps 750 mmHg 24%
    15:00 +44°C° 0 mm 3 mps 750 mmHg 25%
    16:00 +43°C° 0 mm 3 mps 749 mmHg 28%
    17:00 +42°C° 0 mm 3 mps 749 mmHg 31%
    18:00 +42°C° 0 mm 3 mps 749 mmHg 34%
    19:00 +40°C° 0 mm 3 mps 749 mmHg 37%
    20:00 +39°C° 0 mm 2 mps 750 mmHg 40%
    21:00 +38°C° 0 mm 2 mps 750 mmHg 42%
    22:00 +38°C° 0 mm 2 mps 750 mmHg 42%
    23:00 +37°C° 0 mm 1 mps 750 mmHg 41%

    25 May, Friday

    Time Temperature Precipitation Wind Pressure Humidity
    00:00 +36°C° 0 mm 1 mps 750 mmHg 41%
    01:00 +36°C° 0 mm 1 mps 750 mmHg 41%
    02:00 +36°C° 0 mm 1 mps 750 mmHg 42%
    03:00 +35°C° 0 mm 1 mps 749 mmHg 43%
    04:00 +35°C° 0 mm 1 mps 750 mmHg 45%
    05:00 +35°C° 0 mm 2 mps 750 mmHg 48%
    06:00 +35°C° 0 mm 2 mps 750 mmHg 50%
    07:00 +35°C° 0 mm 2 mps 751 mmHg 49%
    08:00 +35°C° 0 mm 1 mps 751 mmHg 47%
    09:00 +35°C° 0 mm 1 mps 752 mmHg 46%
    10:00 +37°C° 0 mm 1 mps 752 mmHg 40%
    11:00 +39°C° 0 mm 1 mps 751 mmHg 34%
    12:00 +41°C° 0 mm 1 mps 751 mmHg 28%
    13:00 +42°C° 0 mm 2 mps 750 mmHg 25%
    14:00 +43°C° 0 mm 2 mps 749 mmHg 22%
    15:00 +45°C° 0 mm 2 mps 749 mmHg 19%
    16:00 +43°C° 0 mm 2 mps 749 mmHg 21%
    17:00 +44°C° 0 mm 3 mps 749 mmHg 22%
    18:00 +43°C° 0 mm 3 mps 748 mmHg 24%
    19:00 +42°C° 0 mm 3 mps 749 mmHg 28%
    20:00 +40°C° 0 mm 3 mps 750 mmHg 31%
    21:00 +40°C° 0 mm 3 mps 750 mmHg 35%
    22:00 +39°C° 0 mm 2 mps 750 mmHg 36%
    23:00 +38°C° 0 mm 2 mps 750 mmHg 38%

    26 May, Saturday

    Time Temperature Precipitation Wind Pressure Humidity
    00:00 +37°C° 0 mm 1 mps 750 mmHg 39%
    01:00 +37°C° 0 mm 1 mps 749 mmHg 39%
    02:00 +36°C° 0 mm 1 mps 749 mmHg 39%
    03:00 +36°C° 0 mm 1 mps 749 mmHg 39%
    04:00 +36°C° 0 mm 1 mps 749 mmHg 39%
    05:00 +36°C° 0 mm 1 mps 750 mmHg 39%
    06:00 +35°C° 0 mm 1 mps 750 mmHg 39%
    07:00 +37°C° 0 mm 1 mps 750 mmHg 33%
    08:00 +40°C° 0 mm 2 mps 751 mmHg 28%
    09:00 +41°C° 0 mm 2 mps 751 mmHg 23%
    10:00 +43°C° 0 mm 2 mps 751 mmHg 20%
    11:00 +45°C° 0 mm 3 mps 750 mmHg 18%
    12:00 +46°C° 0 mm 3 mps 750 mmHg 15%
    13:00 +46°C° 0 mm 3 mps 749 mmHg 16%
    14:00 +47°C° 0 mm 4 mps 749 mmHg 16%
    15:00 +47°C° 0 mm 4 mps 748 mmHg 17%
    16:00 +45°C° 0 mm 4 mps 748 mmHg 20%
    17:00 +44°C° 0 mm 4 mps 748 mmHg 22%
    18:00 +44°C° 0 mm 3 mps 749 mmHg 25%
    19:00 +43°C° 0 mm 3 mps 749 mmHg 28%
    20:00 +42°C° 0 mm 3 mps 750 mmHg 30%
    21:00 +40°C° 0 mm 3 mps 750 mmHg 33%
    22:00 +40°C° 0 mm 3 mps 750 mmHg 32%
    23:00 +39°C° 0 mm 2 mps 750 mmHg 32%

    27 May, Sunday

    Time Temperature Precipitation Wind Pressure Humidity
    00:00 +39°C° 0 mm 2 mps 750 mmHg 32%
    01:00 +39°C° 0 mm 2 mps 749 mmHg 33%
    02:00 +37°C° 0 mm 1 mps 749 mmHg 33%
    03:00 +37°C° 0 mm 1 mps 749 mmHg 33%
    04:00 +36°C° 0 mm 1 mps 750 mmHg 34%
    05:00 +36°C° 0 mm 1 mps 750 mmHg 34%
    06:00 +35°C° 0 mm 1 mps 751 mmHg 35%
    07:00 +37°C° 0 mm 1 mps 751 mmHg 32%
    08:00 +39°C° 0 mm 1 mps 752 mmHg 28%
    09:00 +41°C° 0 mm 1 mps 752 mmHg 25%
    10:00 +42°C° 0 mm 2 mps 752 mmHg 23%
    11:00 +43°C° 0 mm 2 mps 751 mmHg 20%
    12:00 +45°C° 0 mm 2 mps 751 mmHg 18%
    13:00 +45°C° 0 mm 3 mps 750 mmHg 18%
    14:00 +46°C° 0 mm 3 mps 749 mmHg 18%
    15:00 +46°C° 0 mm 3 mps 749 mmHg 18%
    16:00 +45°C° 0 mm 3 mps 749 mmHg 20%
    17:00 +45°C° 0 mm 3 mps 749 mmHg 21%
    18:00 +43°C° 0 mm 2 mps 749 mmHg 23%
    19:00 +42°C° 0 mm 2 mps 749 mmHg 26%
    20:00 +42°C° 0 mm 3 mps 750 mmHg 28%
    21:00 +42°C° 0 mm 3 mps 750 mmHg 30%
    22:00 +40°C° 0 mm 2 mps 750 mmHg 31%
    23:00 +40°C° 0 mm 2 mps 750 mmHg 32%
    Show more